Tracking 30306 objects as of 25-Apr-2025
HD Live streaming from Space Station
objects crossing your sky now

WESTFORD NEEDLES

Track WESTFORD NEEDLES now!
10-day predictions
WESTFORD NEEDLES is classified as:


NORAD ID: 2375
Int'l Code: 1963-014W
Perigee: 1,946.1 km
Apogee: 5,210.3 km
Inclination: 86.5 °
Period: 164.6 minutes
Semi major axis: 9949 km
RCS: 0.1605 m2 (medium)
Launch date: May 9, 1963
Source: United States (US)
Launch site: AIR FORCE WESTERN TEST RANGE (AFWTR)
Your satellite tracking list
Your tracking list is empty




NASA's NSSDC Master Catalog

Two Line Element Set (TLE):
1 02375U 63014W   25110.98535702  .00000397  00000-0  43370-1 0  9996
2 02375  86.4657 109.7079 1640451 282.6606  59.6395  8.74823120334506
Source of the keplerian elements: AFSPC